Location: Wells
(51.2093°N, 2.6446°W)
Time: 17:31:01
(UTC+00:00)

BUGSAT 1 - Visible Passes

Search period start: 14 March 2026 00:00
Search period end: 24 March 2026 00:00
Orbit: 502 x 543 km, 98.0° (Epoch: 14 March)

Date Brightness Start Highest point End Pass type
(mag) Time Alt. Az. Time Alt. Az. Time Alt. Az.
16 Mar ? 22:02:01 10° N 22:02:01 10° N 22:02:02 10° N visible
17 Mar ? 21:48:56 10° N 21:48:56 10° N 21:48:57 10° N visible
19 Mar ? 22:57:51 10° NNW 22:57:51 10° NNW 22:57:51 10° NNW visible
20 Mar ? 22:44:44 12° NNW 22:44:44 12° NNW 22:44:58 10° NNW visible
21 Mar ? 22:31:36 13° N 22:31:36 13° N 22:32:00 10° N visible
22 Mar ? 22:18:27 13° N 22:18:27 13° N 22:18:59 10° N visible
23 Mar ? 22:05:17 14° N 22:05:17 14° N 22:05:54 10° N visible
